Regional Weather Roundup
Issued by NWS

Home | Current Version | Previous Version | Text Only | Print | Product List | Glossary On
Versions: 1 2 3 4 5 6 7 8 9 10 11 12 13 14 15 16 17 18 19 20 21 22 23 24 25 26 27 28 29 30 31 32 33 34 35 36 37 38 39 40 41 42 43 44 45 46 47 48 49 50
098
ASUS43 KLSX 191610
RWRMO

WEATHER SUMMARY FOR MISSOURI
NATIONAL WEATHER SERVICE SPRINGFIELD MO
1100 AM CDT THU APR 19 2018

NOTE: "FAIR" INDICATES FEW OR NO CLOUDS BELOW 12,000 FEET WITH NO
       SIGNIFICANT WEATHER AND/OR OBSTRUCTIONS TO VISIBILITY.
       CURRENT SKY AND/OR WEATHER CONDITIONS ARE NOT AVAILABLE FOR
       CHILLICOTHE AND FARMINGTON.

MOZ001>031-035>038-043-044-053-054-191700-
...NORTHERN AND WESTERN MISSOURI...

CITY           SKY/WX    TMP DP  RH WIND       PRES   REMARKS
KANSAS CTY INT MOSUNNY   46  29  51 N9        30.45R
KANSAS C DTWN  SUNNY     48  30  49 N8        30.46R
LEE`S SUMMIT   SUNNY     45  32  60 MISG      30.45R
ST JOSEPH      SUNNY     48  32  53 N13       30.47R
CHILLICOTHE      N/A     46  32  58 N10       30.46R
KIRKSVILLE     PTSUNNY   45  31  58 NE8       30.43R

$$
MOZ066>068-077>081-088>096-101>105-191700-
...SOUTHWEST MISSOURI...

CITY           SKY/WX    TMP DP  RH WIND       PRES   REMARKS
SPRINGFIELD    MOSUNNY   46  29  51 NE15      30.39R
JOPLIN         SUNNY     47  29  49 N10G23    30.43R

$$
MOZ032>034-039>042-045>050-055>058-069>072-191700-
...CENTRAL MISSOURI...

CITY           SKY/WX    TMP DP  RH WIND       PRES   REMARKS
COLUMBIA       MOSUNNY   43  28  55 N8        30.42R
JEFFERSON CITY MOSUNNY   44  28  53 N13G20    30.43R
ROLLA            N/A     43  28  55 MISG      30.40R
SEDALIA        MOSUNNY   47  31  53 NE7       30.44R
WARRENSBURG    SUNNY     45  30  57 N6        30.45R
OSAGE BEACH    CLOUDY    42  28  57 N8        30.43R

$$
MOZ051-052-059>065-191700-
...EAST CENTRAL MISSOURI...

CITY           SKY/WX    TMP DP  RH WIND       PRES   REMARKS
ST LOUIS INTL  CLOUDY    41  32  70 N10       30.40R
SPIRIT OF STL  CLOUDY    43  31  62 N10       30.40R
ST CHARLES     CLOUDY    44  32  62 NE13      30.40R

$$
MOZ072>076-082>087-097>100-106>115-191700-
...SOUTH CENTRAL AND SOUTHEAST MISSOURI...

CITY           SKY/WX    TMP DP  RH WIND       PRES   REMARKS
CAPE GIRARDEAU CLOUDY    44  28  53 N14       30.36R
FARMINGTON     CLOUDY    42  28  57 NE10      30.37R
POPLAR BLUFF   PTSUNNY   47  31  53 N16       30.37R
WEST PLAINS    MOSUNNY   45  27  49 N13G22    30.37R

$$




USA.gov is the U.S. government's official web portal to all federal, state and local government web resources and services.